RH
2 3 4 5 10 7 6 10 21 22 7 21 57 56 49 60 76 17 27 50 39 26 29 25 28 20 22 30 26 54 88 83 64 84 70 91 95 51 45 52 41 31 22 35
2 2 3 4 4 10 6 5 9 18 8 18 31 46 56 69 16 14 22 36 40 39 32 25 18 16 32 78 48 42 55 59 63 51 78 40 32 25 34 55 95 46 26 18
2 2 2 2 3 5 8 5 4 7 12 18 22 37 49 37 11 16 15 33 33 36 34 27 18 41 24 62 71 85 84 45 27 29 60 62 48 52 63 42 26 20 18 17
9 2 2 2 2 3 6 6 5 6 14 18 19 30 41 39 9 12 17 34 39 46 26 33 16 80 42 48 94 100 85 21 18 19 25 22 21 25 43 74 82 45 26 15
29 6 2 2 2 3 5 6 8 6 9 7 18 22 32 44 7 10 8 14 38 48 43 28 24 13 22 17 42 63 40 30 21 16 17 14 13 10 10 24 71 20 23 28
28 18 2 2 2 3 3 4 7 8 5 6 9 21 22 33 7 8 11 18 38 47 38 25 29 15 20 30 29 14 14 11 10 9 9 10 10 8 8 12 20 13 20 21
29 24 10 1 2 3 3 4 4 8 7 7 10 16 22 11 14 8 15 27 35 44 43 23 27 26 19 14 16 12 13 14 11 9 11 12 12 12 8 8 13 15 19 28
33 29 18 2 2 2 3 4 3 5 7 7 6 14 18 8 11 11 20 23 32 44 40 27 20 30 25 24 24 35 24 42 58 37 28 23 19 11 8 14 20 21 26 36
29 32 34 9 2 2 2 3 3 3 6 6 5 7 11 11 9 26 23 34 48 45 52 49 23 33 32 40 17 17 11 84 46 39 39 35 22 14 15 17 20 27 30 33
33 34 35 28 3 2 2 3 3 3 4 4 4 7 7 28 18 25 40 56 37 33 46 41 40 44 48 48 28 11 8 11 23 30 26 22 25 28 22 21 24 32 39 36
40 43 46 35 8 2 2 2 3 3 3 10 6 10 10 11 29 12 23 44 25 48 42 53 31 41 39 31 12 8 10 16 24 29 28 23 28 30 28 31 28 25 20 14
65 65 54 34 7 1 2 2 3 2 4 72 45 23 12 9 36 29 29 40 42 50 66 52 43 38 82 17 9 8 9 18 24 31 28 24 24 17 13 14 15 14 13 11
70 60 35 16 2 1 2 2 3 4 44 100 94 68 42 10 19 42 49 68 69 54 66 100 89 54 42 17 9 8 9 11 13 12 11 10 11 12 13 14 13 11 10 10
42 49 34 24 11 1 2 3 3 4 13 57 90 71 47 17 16 28 50 89 88 78 99 99 93 58 36 20 13 11 12 12 11 11 11 12 13 13 12 12 12 12 12 13
83 88 58 14 2 1 2 70 97 78 18 60 99 93 91 54 35 29 42 86 65 53 83 98 90 64 39 18 18 18 15 17 15 13 15 16 14 13 13 12 11 12 14 16
88 52 20 2 1 2 5 67 57 100 52 65 86 81 92 74 92 98 83 90 66 50 68 88 100 85 37 20 20 25 25 24 20 18 17 17 16 16 16 16 18 19 20 22
49 13 3 1 1 2 58 63 66 49 52 100 100 97 84 99 94 96 78 62 54 44 59 70 100 63 29 21 21 22 20 21 22 22 20 19 18 18 19 21 22 23 28 27
6 3 1 2 76 100 97 100 100 98 100 100 99 98 100 98 97 95 99 90 79 88 100 83 61 54 37 25 23 25 25 26 24 22 22 22 22 22 23 25 27 35 34 30
2 5 23 62 76 69 89 98 100 100 99 100 99 100 70 96 95 72 79 89 99 100 98 84 95 88 65 40 32 37 44 37 25 22 23 24 25 28 29 36 43 39 36 40
90 88 100 100 95 100 100 100 100 96 100 100 99 100 100 74 88 88 82 100 100 99 97 93 83 69 62 58 54 57 52 43 35 28 26 29 32 40 50 50 45 42 52 70
83 99 100 100 100 100 100 100 100 100 99 92 84 70 71 78 86 83 91 96 92 88 59 60 51 43 44 42 45 43 40 42 35 36 38 46 60 62 55 50 54 72 81 70
80 93 97 99 100 100 100 98 84 74 67 62 61 75 82 79 80 78 78 72 65 67 60 57 42 40 46 52 53 56 57 53 52 58 68 70 65 58 56 72 85 80 71 82
100 100 100 100 92 94 100 100 100 98 91 96 97 93 88 87 82 83 73 77 84 76 69 64 59 60 62 61 61 65 73 85 87 81 72 63 59 75 90 80 78 87 99 100
100 100 100 100 100 100 100 100 89 79 81 82 86 83 90 98 92 83 82 75 84 92 87 85 84 90 97 100 100 100 98 90 83 73 71 85 86 78 81 89 97 100 100 100
100 100 100 100 100 100 100 97 90 84 72 76 91 92 97 100 95 95 88 86 83 84 96 100 100 100 100 100 100 97 94 94 92 84 77 80 94 99 100 100 100 100 100 100
99 100 100 100 100 96 86 83 83 80 78 82 96 97 89 99 100 100 100 99 96 100 100 100 99 94 87 84 92 98 94 87 89 97 100 100 100 100 100 100 100 100 100 100
100 100 98 87 95 93 85 87 94 100 100 100 100 100 100 99 99 100 100 100 100 100 99 98 100 100 95 94 91 94 98 100 100 100 100 100 100 100 100 100 100 100 99 84
Wind_Speed
93 90 85 80 77 73 70 67 64 61 60 60 50 44 42 42 32 35 34 33 28 24 18 20 20 22 16 16 20 26 25 24 21 16 14 20 29 17 16 17 18 21 18 16
89 94 90 87 82 79 75 70 66 68 64 61 52 47 45 41 37 39 37 34 31 24 21 23 20 26 17 20 17 16 13 16 18 17 18 16 16 20 16 21 18 19 21 13
83 90 97 92 88 84 80 77 75 71 66 59 53 50 44 41 38 41 40 37 32 26 24 26 24 27 21 23 20 19 16 19 18 15 19 22 21 19 18 23 25 22 21 17
50 90 98 97 93 89 86 83 77 69 61 63 58 56 51 47 46 44 43 41 35 29 29 29 24 27 26 26 25 26 23 20 18 16 19 22 23 21 23 22 21 22 20 22
37 58 99 101 96 93 92 86 77 66 58 57 58 56 52 51 47 47 47 40 34 32 33 30 29 29 25 26 26 24 20 22 23 22 24 26 28 25 23 27 27 22 19 22
39 42 78 102 101 101 95 88 79 69 61 58 59 55 54 51 46 49 47 40 37 34 31 32 31 30 29 28 28 25 24 26 26 27 27 29 34 27 25 26 31 27 26 25
34 36 54 96 100 103 96 88 80 72 65 58 52 57 57 50 48 47 46 40 37 31 35 36 33 34 33 32 29 28 27 30 31 31 31 36 29 29 31 27 26 28 26 25
33 36 42 66 90 99 96 88 82 73 67 59 56 58 62 50 46 49 46 42 36 37 37 41 39 39 37 34 31 26 25 30 27 29 29 30 27 27 26 25 26 25 23 23
37 35 39 48 72 95 94 88 82 75 70 59 59 60 57 50 53 51 49 45 42 44 38 40 40 41 39 35 31 27 25 29 31 27 25 26 22 25 24 25 26 22 21 22
38 37 36 40 59 86 94 89 84 77 66 64 61 60 57 48 52 53 53 50 47 44 42 40 42 42 39 35 30 28 29 28 29 26 26 24 19 23 24 25 20 20 22 25
39 40 33 34 53 81 94 90 83 77 67 63 64 63 51 54 48 54 52 48 47 45 44 42 43 40 34 35 30 26 28 28 26 24 25 21 19 20 20 18 20 20 23 26
38 40 37 37 55 75 91 90 85 78 70 43 48 56 53 52 47 51 51 44 44 43 40 41 42 41 32 32 29 28 28 24 24 23 22 19 17 15 14 15 19 24 26 29
31 33 34 43 61 73 89 90 83 77 67 29 34 34 38 52 50 51 47 40 43 42 43 41 42 40 34 33 28 27 26 22 20 21 18 16 15 16 17 20 24 27 29 32
25 36 37 48 64 79 88 85 82 76 73 39 25 31 34 44 50 49 45 44 42 45 44 45 43 41 37 33 31 29 25 23 22 21 19 20 20 22 24 26 28 31 34 37
30 39 43 58 70 84 87 71 51 39 58 45 32 30 34 41 40 42 44 44 45 48 46 45 43 40 37 35 35 32 29 25 24 24 25 25 27 28 30 33 36 38 40 42
28 43 59 67 77 84 88 78 65 46 57 39 28 30 34 37 35 34 41 41 41 44 47 33 46 45 42 40 38 33 32 30 27 27 29 30 32 34 36 38 40 43 45 46
49 64 68 71 78 77 64 45 41 47 50 37 28 39 36 42 42 35 45 46 45 42 43 44 48 49 46 42 39 35 35 33 31 32 33 34 36 39 40 42 45 46 47 48
72 72 71 77 78 68 54 46 39 43 47 51 27 28 40 41 44 41 42 35 50 42 40 39 41 42 42 44 42 39 36 34 35 35 37 39 40 43 44 46 47 48 49 51
77 75 77 65 60 57 52 47 43 23 28 31 42 34 27 41 46 43 42 40 35 47 48 50 49 47 49 49 46 41 39 39 39 40 41 43 45 46 48 48 49 51 52 52
80 74 73 62 55 37 42 35 39 40 22 19 24 32 52 48 52 43 38 43 40 38 43 48 48 46 42 43 45 44 42 42 43 45 46 47 48 49 50 50 53 53 52 53
72 74 69 44 33 35 34 28 32 40 34 13 11 20 25 33 34 34 35 38 41 41 39 43 46 48 44 42 43 43 44 45 45 46 47 49 49 50 53 54 52 52 53 54
43 34 31 30 27 25 16 19 18 23 20 21 22 23 26 27 30 34 37 39 38 37 36 39 41 40 39 41 42 43 45 46 47 47 48 49 51 52 52 51 52 53 54 53
41 32 36 35 24 20 18 17 17 18 17 15 17 20 21 25 28 30 31 36 38 38 40 40 39 39 37 40 41 42 43 44 46 47 49 50 50 49 50 52 54 53 50 48
22 24 23 22 23 19 17 16 12 11 12 13 16 19 24 21 21 26 29 32 34 36 38 36 34 35 37 39 40 40 41 43 45 47 47 48 49 51 53 52 49 47 48 51
28 23 23 24 19 12 9 10 13 14 17 17 19 25 21 26 26 30 29 31 34 35 34 34 37 37 37 36 37 38 40 42 44 46 48 50 52 51 47 45 47 50 54 59
29 25 23 23 22 22 15 13 16 14 17 22 22 21 22 25 32 30 31 31 32 33 33 33 34 33 34 36 38 41 43 45 47 51 50 46 44 41 45 50 53 57 60 63
27 26 26 23 25 28 24 22 16 13 13 15 19 19 21 27 31 32 32 31 29 27 27 29 30 35 38 40 42 45 48 47 45 43 43 45 47 49 53 55 59 63 61 56
Wind_Direction
226 227 224 223 222 221 222 223 222 217 219 220 222 222 220 218 207 220 221 228 234 243 224 227 230 229 216 223 225 219 212 223 230 228 255 215 240 232 235 248 252 255 247 233
225 221 222 221 219 220 221 221 221 219 221 218 220 222 211 202 206 217 223 224 228 237 227 228 234 229 213 224 220 223 228 234 239 229 232 230 230 230 232 240 245 254 257 246
219 217 217 218 217 217 218 218 219 219 219 215 215 221 217 206 207 215 221 227 228 230 220 231 232 228 218 221 231 235 241 245 241 230 233 233 234 238 246 247 251 256 252 249
223 212 211 214 215 213 214 215 216 217 213 212 212 212 213 204 206 211 216 220 223 225 227 226 236 223 224 214 227 234 240 240 243 238 238 247 249 247 245 252 261 270 270 258
230 217 209 208 209 211 211 212 213 213 208 210 214 211 213 206 202 208 219 220 218 223 236 221 236 236 225 223 226 232 239 248 249 246 247 251 255 255 252 256 263 265 254 243
228 225 213 208 205 207 207 208 209 208 207 206 208 208 211 208 207 210 215 214 216 219 239 222 224 231 227 230 238 240 241 244 248 252 253 253 254 261 255 246 256 260 259 252
217 222 218 209 207 205 204 206 205 205 205 204 204 206 210 209 210 212 213 214 215 220 229 224 216 230 233 235 235 237 244 251 253 254 255 255 260 253 252 253 253 254 257 262
214 217 216 212 208 205 202 200 202 203 203 200 201 204 206 205 204 209 210 212 209 218 220 224 219 226 234 235 235 243 247 242 258 255 253 258 255 252 248 248 253 253 253 257
209 214 216 211 208 203 199 199 198 199 200 196 202 205 207 206 201 201 205 210 210 217 219 225 225 227 231 233 238 244 248 246 256 257 257 260 249 253 248 247 249 252 263 269
208 214 210 213 205 201 196 195 198 195 195 199 205 204 204 197 197 201 204 204 211 220 221 223 224 227 232 237 242 251 253 248 254 261 263 263 255 248 249 250 257 257 261 266
212 211 209 206 201 197 194 191 196 194 192 201 207 211 204 198 199 204 205 206 213 220 223 221 226 227 233 240 246 251 254 252 254 256 258 259 247 247 252 260 262 263 263 265
212 211 209 202 192 191 191 188 192 192 193 204 216 212 201 194 200 205 206 209 218 224 225 227 227 225 231 237 244 248 251 257 251 247 248 251 248 249 256 262 262 265 270 275
207 207 197 186 178 183 187 187 189 192 180 162 189 200 200 200 199 200 206 210 214 223 221 220 226 226 233 242 242 241 245 246 244 242 243 247 253 259 264 268 271 275 279 283
177 173 174 169 168 178 181 184 189 192 191 174 176 191 199 201 204 202 204 210 219 219 217 217 226 224 228 237 239 237 236 236 243 246 254 261 263 268 272 275 279 283 286 290
157 168 165 162 165 175 178 175 163 177 199 179 180 186 196 200 205 210 207 214 217 219 229 213 215 221 226 233 238 237 240 243 249 253 257 265 271 275 280 284 288 293 296 297
165 160 155 156 167 174 177 178 175 168 169 187 198 205 200 199 194 203 205 218 220 224 221 232 222 223 226 230 236 241 247 253 256 262 270 275 279 282 286 289 292 293 296 299
154 146 146 157 166 168 158 156 162 172 178 187 203 208 207 197 193 200 218 222 223 220 223 232 224 223 228 233 239 243 248 254 261 268 272 276 279 284 287 288 292 296 298 298
137 137 149 157 147 151 157 152 163 188 202 204 223 224 198 197 194 202 198 220 222 210 217 218 221 229 235 239 243 247 253 262 266 270 273 277 281 283 286 290 294 295 295 296
132 138 145 150 150 154 164 179 178 164 184 196 210 228 216 189 202 210 224 213 196 209 225 232 243 249 247 247 250 255 261 266 270 274 277 280 283 285 288 291 292 293 295 295
140 142 140 141 150 163 172 176 191 199 142 162 174 193 204 208 211 230 224 228 232 235 234 235 235 241 245 247 250 257 265 269 272 275 278 281 283 286 288 289 290 292 293 293
137 143 131 124 126 126 148 163 168 190 199 200 191 187 193 203 213 221 225 232 239 242 239 237 241 246 249 253 255 259 263 267 271 274 278 281 283 285 286 288 290 291 292 294
129 143 157 161 150 151 170 167 193 215 227 215 216 200 202 212 217 222 224 228 233 239 239 239 243 245 246 251 255 259 263 268 272 276 278 280 281 284 286 288 290 291 292 293
142 152 172 170 175 181 181 188 195 213 220 221 213 211 214 217 218 224 228 233 235 239 243 245 246 250 253 256 259 264 269 272 275 276 278 281 283 285 286 288 289 290 291 289
156 161 165 173 176 189 203 202 213 234 238 260 239 223 214 228 229 232 232 237 243 245 247 252 256 257 259 262 265 267 269 271 274 276 279 281 283 285 287 287 288 285 282 285
187 199 214 214 205 207 219 252 262 266 261 270 245 233 237 229 234 237 237 238 243 249 254 253 254 259 262 265 269 271 272 274 276 279 282 283 285 285 283 278 277 279 284 290
203 219 219 218 227 223 236 271 263 262 258 234 222 237 233 237 235 238 243 245 249 253 256 256 260 264 266 267 269 273 276 277 278 280 282 282 281 271 267 273 278 284 287 291
222 226 226 236 240 235 251 257 244 251 245 238 231 237 243 243 242 244 249 255 257 260 265 267 266 265 269 274 275 279 282 282 281 281 281 280 274 271 274 279 280 285 292 294